Regional Weather Roundup
Issued by NWS Sioux Falls, SD

Home | Current Version | Previous Version | Text Only | Print | Product List | Glossary Off
Versions: 1 2 3 4 5 6 7 8 9 10 11 12 13 14 15 16 17 18 19 20 21 22 23 24 25 26 27 28 29 30 31 32 33 34 35 36 37 38 39 40 41 42 43 44 45 46 47 48 49 50

000
ASUS43 KFSD 270102
RWRFSD

WEATHER ROUNDUP FOR SE SOUTH DAKOTA/SW MINNESOTA/NW IOWA
NATIONAL WEATHER SERVICE SIOUX FALLS SD
800 PM CDT SUN APR 26 2015

NOTE: "FAIR" INDICATES FEW OR NO CLOUDS BELOW 12,000 FEET WITH NO
SIGNIFICANT WEATHER AND OR OBSTRUCTIONS TO VISIBILITY.


SDZ038>040-050-052>070-270200-
SOUTHEAST SOUTH DAKOTA

CITY           SKY/WX    TMP DP  RH WIND       PRES   REMARKS
BROOKINGS      CLEAR     61  28  29 NE8       30.08R
CHAMBERLAIN    NOT AVBL
HURON          CLEAR     61  33  35 E8        30.05R
MADISON        FAIR      59  30  33 E9        30.07R
MITCHELL       CLEAR     60  39  45 E7        30.05S
SIOUX FALLS    PTCLDY    60  34  37 N10       30.05R
WINNER         FAIR      61  31  32 E9        30.05R
YANKTON        CLEAR     63  30  29 E3        30.02R
$$

MNZ071-072-080-081-089-090-097-098-270200-
SOUTHWEST MINNESOTA

CITY           SKY/WX    TMP DP  RH WIND       PRES   REMARKS
FAIRMONT       CLEAR     61  25  25 NE10      30.05S
JACKSON        CLEAR     59  21  23 NE9       30.07R
LUVERNE        CLEAR     63  28  27 NE8       30.05R
MARSHALL       CLEAR     61  23  23 NE9       30.08R
MONTEVIDEO     CLEAR     59  19  21 E8        30.10R
REDWOOD FALLS  CLEAR     61  15  16 NE5       30.08R
TRACY          CLEAR     60  22  22 NE10      30.08R
WORTHINGTON    CLEAR     61  25  25 NE10      30.06R
$$

IAZ001>003-012>014-020>022-031-032-NEZ013-014-SDZ071-270200-
NORTHWEST IOWA

CITY           SKY/WX    TMP DP  RH WIND       PRES   REMARKS
DENISON        CLEAR     59  32  36 E6        30.01R
ESTHERVILLE    CLEAR     57  28  33 NE10      30.05R
SIOUX CITY     CLEAR     63  30  28 E6        30.02R
SPENCER        CLEAR     60  31  33 NE10      30.04R
$$

ABBREVIATIONS USED IN REMARKS
   TC - TEMPERATURE IN CELSIUS
  WCI - WIND CHILL INDEX
   HX - HEAT INDEX
  VSB - VISIBILITY



USA.gov is the U.S. government's official web portal to all federal, state and local government web resources and services.